Location: Al Mulaqqa?ah
(24.1833°N, 32.8833°E)
Time: 19:30:13
(UTC+00:00)

Okean O Rocket - Pass Details

Date: 26 September 2021
Orbit: 622 x 644 km, 98.2° (Epoch: 25 October)

Event Time Altitude Azimuth Distance (km) Brightness Sun altitude
Rises 17:06:28 0° 200° (SSW) 2,919 5.2 -20.4°
Reaches altitude 10° 17:09:16 10° 219° (SW) 2,010 4.6 -21.0°
Maximum altitude 17:12:15 18° 263° (W) 1,546 4.5 -21.7°
Drops below altitude 10° 17:15:14 10° 306° (NW) 2,006 5.0 -22.4°
Sets 17:18:02 0° 325° (NW) 2,912 5.6 -23.0°
